Hourly Data Report for May 21, 2021

DRYDEN REGIONAL
ONTARIO
Current Station Operator: NAVCAN

49°49'39.000" N
92°44'39.000" W
412.70 m
6032125
71527
YHD

Download Data

Hourly Data (May 2021)
Hourly Data Report for May 21, 2021
TIME
LST
Temp Definition
°C
Dew Point Definition
°C
Rel Hum Definition
%
Precip. Amount Definition
mm

Wind Dir Definition
10's deg

Wind Spd Definition
km/h
Visibility Definition
km
Stn Press Definition
kPa
Hmdx Definition


Wind Chill Definition


Weather Definition


00:00 16.5 16.3 99 1.0 14 8 4.8 96.62     Moderate Rain, Fog
01:00 16.8 16.6 99 0.5 20 17 16.1 96.60     LegendNANA
02:00 15.8 15.7 99 0.0 28 8 6.4 96.63     Fog
03:00 14.1 14.0 99 0.0 LegendMM 4 6.4 96.66     Fog
04:00 13.7 13.7 100 0.0 29 5 2.4 96.71     Fog
05:00 12.5 12.5 100 0.0 33 8 0.2 96.76     Fog
06:00 12.0 12.0 100 0.0 36 5 0.2 96.82     Fog
07:00 12.6 12.6 100 0.0 3 5 2.0 96.87     Fog
08:00 12.8 12.8 100 0.0 LegendMM 5 2.0 96.94     Fog
09:00 13.3 13.3 100 0.0 LegendMM 5 6.4 96.94     Fog
10:00 14.2 13.6 96 0.0 7 8 16.1 96.96     LegendNANA
11:00 14.8 13.9 95 0.0 5 8 16.1 96.99     LegendNANA
12:00 16.8 14.9 88 0.0 2 8 16.1 97.01     LegendNANA
13:00 19.1 16.0 82 0.0 LegendMM 4 16.1 97.00     LegendNANA
14:00 20.8 16.6 77 0.0 LegendMM 4 16.1 96.98 26   LegendNANA
15:00 22.4 17.1 71 0.0 5 5 16.1 96.93 28   LegendNANA
16:00 23.6 17.3 67 0.0 3 8 16.1 96.88 29   LegendNANA
17:00 23.7 17.8 69 0.0 5 11 16.1 96.84 30   LegendNANA
18:00 21.6 17.9 79 0.0 5 11 16.1 96.86 28   LegendNANA
19:00 21.3 17.8 80 0.0 6 11 16.1 96.85 27   LegendNANA
20:00 19.7 17.3 86 0.0 5 8 16.1 96.90     LegendNANA
21:00 20.0 17.4 85 0.0 LegendMM 4 16.1 96.95 26   LegendNANA
22:00 20.3 17.6 84 0.0 27 15 16.1 96.97 26   LegendNANA
23:00 19.2 17.5 90 0.0 29 11 16.1 96.98     LegendNANA

Notes on Data Quality.

Legend

  • E = Estimated
  • M = Missing
  • NA = Not Available*
  • [empty] = Indicates an unobserved value
Date modified: